{"data":{"norad_id":48569,"intl_designator":"2021-041S","name":"STARLINK-2219","alt_names":[],"object_type":"PAYLOAD","status":"ACTIVE","operator":null,"country":"US","launch_date":"2021-05-15","launch_site_code":"AFETR","launch_vehicle":null,"mission":null,"orbit_class":"UNKNOWN","rcs_meters":null,"size_class":null,"mass_kg":null,"dimensions":null,"purposes":["comms"],"wikipedia_slug":null,"has_3d_model":false,"image_url":null,"decayed_at":null,"tle_current":{"epoch":"2026-09-19T18:01:40.875456Z","epoch_age_seconds":101992,"freshness":"FRESH","line1":"1 48569U 21041S   26262.75116754  .00000845  00000+0  38985-4 0  9997","line2":"2 48569  53.1584 303.5939 0001077 110.6735 249.4382 15.31703878295012","mean_motion":15.31703878,"eccentricity":0.0001077,"inclination_deg":53.1584,"raan_deg":303.5939,"arg_perigee_deg":110.6735,"mean_anomaly_deg":249.4382,"bstar":3.8985e-5,"rev_number":29501,"period_min":94.012949936528,"perigee_km":469.99081232647,"apogee_km":471.4660579412,"semimajor_km":6848.8654351338,"source":"CELESTRAK","updated_at":"2026-09-20T09:00:39.134525Z"}}}